• Em Portugal
  • Lista de países
  • Para 7 dias
  • Temperatura da água
  • Mapas de satélite
  • Mapa do tempo
  • Widgets de tempo
  • user-avatar
    Iniciar Sessão

    Previsão horária em Dangriga

    Hoje, 22 Novembro, Quarta-feira

    Tempo Temperatura Precipitação Vento Pressão Humidade
    00:00 +23°C° 0 mm 1 m/s 759 mmHg 98%
    01:00 +23°C° 0 mm 1 m/s 759 mmHg 98%
    02:00 +23°C° 0 mm 1 m/s 758 mmHg 98%
    03:00 +21°C° 0 mm 0 m/s 758 mmHg 98%
    04:00 +21°C° 0 mm 0 m/s 759 mmHg 98%
    05:00 +21°C° 0 mm 0 m/s 759 mmHg 98%
    06:00 +21°C° 0 mm 0 m/s 759 mmHg 98%
    07:00 +23°C° 0 mm 0 m/s 759 mmHg 87%
    08:00 +26°C° 0 mm 0 m/s 760 mmHg 76%
    09:00 +28°C° 0 mm 0 m/s 760 mmHg 65%
    10:00 +31°C° 0 mm 1 m/s 760 mmHg 60%
    11:00 +32°C° 0 mm 1 m/s 759 mmHg 54%
    12:00 +34°C° 0 mm 1 m/s 759 mmHg 49%
    13:00 +32°C° 0,6 mm 1 m/s 759 mmHg 58%
    14:00 +31°C° 0,6 mm 1 m/s 758 mmHg 67%
    15:00 +30°C° 0,6 mm 2 m/s 758 mmHg 76%
    16:00 +28°C° 0,9 mm 2 m/s 758 mmHg 82%
    17:00 +27°C° 0,9 mm 2 m/s 759 mmHg 87%
    18:00 +25°C° 0,9 mm 2 m/s 759 mmHg 93%
    19:00 +24°C° 0,7 mm 1 m/s 760 mmHg 95%
    20:00 +24°C° 0,7 mm 1 m/s 760 mmHg 96%
    21:00 +23°C° 0,7 mm 1 m/s 761 mmHg 97%
    22:00 +23°C° 0,7 mm 2 m/s 761 mmHg 98%
    23:00 +23°C° 0,7 mm 2 m/s 761 mmHg 98%

    Amanhã, 23 Novembro, Quinta-feira

    Tempo Temperatura Precipitação Vento Pressão Humidade
    00:00 +22°C° 0,7 mm 3 m/s 761 mmHg 98%
    01:00 +22°C° 0,2 mm 3 m/s 761 mmHg 98%
    02:00 +21°C° 0,2 mm 4 m/s 760 mmHg 98%
    03:00 +21°C° 0,2 mm 4 m/s 760 mmHg 97%
    04:00 +21°C° 0 mm 5 m/s 760 mmHg 97%
    05:00 +21°C° 0 mm 5 m/s 761 mmHg 96%
    06:00 +21°C° 0 mm 5 m/s 761 mmHg 96%
    07:00 +23°C° 0 mm 5 m/s 761 mmHg 87%
    08:00 +25°C° 0 mm 5 m/s 762 mmHg 79%
    09:00 +27°C° 0 mm 5 m/s 762 mmHg 70%
    10:00 +28°C° 0 mm 4 m/s 762 mmHg 65%
    11:00 +29°C° 0 mm 4 m/s 761 mmHg 60%
    12:00 +30°C° 0 mm 4 m/s 761 mmHg 54%
    13:00 +30°C° 0 mm 3 m/s 760 mmHg 53%
    14:00 +31°C° 0 mm 3 m/s 760 mmHg 52%
    15:00 +31°C° 0 mm 3 m/s 759 mmHg 50%
    16:00 +29°C° 0 mm 3 m/s 759 mmHg 58%
    17:00 +27°C° 0 mm 2 m/s 759 mmHg 65%
    18:00 +25°C° 0 mm 2 m/s 760 mmHg 73%
    19:00 +25°C° 0 mm 3 m/s 760 mmHg 75%
    20:00 +23°C° 0 mm 4 m/s 761 mmHg 77%
    21:00 +23°C° 0 mm 5 m/s 762 mmHg 79%
    22:00 +22°C° 0 mm 5 m/s 762 mmHg 81%
    23:00 +22°C° 0 mm 5 m/s 762 mmHg 83%

    Depois de amanhã, 24 Novembro, Sexta-feira

    Tempo Temperatura Precipitação Vento Pressão Humidade
    00:00 +21°C° 0 mm 5 m/s 762 mmHg 85%
    01:00 +21°C° 0 mm 5 m/s 761 mmHg 87%
    02:00 +21°C° 0 mm 5 m/s 761 mmHg 88%
    03:00 +20°C° 0 mm 5 m/s 761 mmHg 89%
    04:00 +20°C° 0 mm 5 m/s 761 mmHg 90%
    05:00 +20°C° 0 mm 4 m/s 761 mmHg 92%
    06:00 +19°C° 0 mm 4 m/s 762 mmHg 93%
    07:00 +21°C° 0 mm 4 m/s 762 mmHg 84%
    08:00 +23°C° 0 mm 4 m/s 763 mmHg 74%
    09:00 +26°C° 0 mm 4 m/s 763 mmHg 65%
    10:00 +28°C° 0 mm 3 m/s 763 mmHg 59%
    11:00 +29°C° 0 mm 3 m/s 762 mmHg 54%
    12:00 +31°C° 0 mm 2 m/s 762 mmHg 48%
    13:00 +30°C° 0 mm 2 m/s 761 mmHg 49%
    14:00 +30°C° 0 mm 2 m/s 761 mmHg 50%
    15:00 +30°C° 0 mm 2 m/s 760 mmHg 52%
    16:00 +28°C° 0 mm 2 m/s 760 mmHg 61%
    17:00 +26°C° 0 mm 1 m/s 761 mmHg 70%
    18:00 +24°C° 0 mm 1 m/s 761 mmHg 80%
    19:00 +23°C° 0 mm 1 m/s 761 mmHg 82%
    20:00 +23°C° 0 mm 1 m/s 762 mmHg 84%
    21:00 +23°C° 0 mm 1 m/s 763 mmHg 86%
    22:00 +22°C° 0 mm 1 m/s 763 mmHg 87%
    23:00 +21°C° 0 mm 2 m/s 762 mmHg 89%

    25 Novembro, Sábado

    Tempo Temperatura Precipitação Vento Pressão Humidade
    00:00 +21°C° 0 mm 2 m/s 762 mmHg 90%
    01:00 +20°C° 0,1 mm 2 m/s 762 mmHg 90%
    02:00 +20°C° 0,1 mm 2 m/s 762 mmHg 91%
    03:00 +20°C° 0,1 mm 2 m/s 761 mmHg 91%
    04:00 +20°C° 0,1 mm 3 m/s 762 mmHg 92%
    05:00 +20°C° 0,1 mm 3 m/s 762 mmHg 93%
    06:00 +19°C° 0,1 mm 3 m/s 762 mmHg 94%
    07:00 +22°C° 0 mm 3 m/s 763 mmHg 83%
    08:00 +25°C° 0 mm 3 m/s 763 mmHg 72%
    09:00 +27°C° 0 mm 3 m/s 764 mmHg 61%
    10:00 +29°C° 0 mm 3 m/s 763 mmHg 56%
    11:00 +30°C° 0 mm 2 m/s 763 mmHg 52%
    12:00 +32°C° 0 mm 2 m/s 762 mmHg 47%
    13:00 +31°C° 0 mm 2 m/s 761 mmHg 51%
    14:00 +30°C° 0 mm 2 m/s 761 mmHg 54%
    15:00 +29°C° 0 mm 3 m/s 760 mmHg 58%
    16:00 +27°C° 0 mm 3 m/s 761 mmHg 66%
    17:00 +26°C° 0 mm 3 m/s 761 mmHg 74%
    18:00 +24°C° 0 mm 3 m/s 762 mmHg 82%
    19:00 +24°C° 0 mm 2 m/s 762 mmHg 84%
    20:00 +23°C° 0 mm 2 m/s 762 mmHg 87%
    21:00 +23°C° 0 mm 2 m/s 763 mmHg 89%
    22:00 +21°C° 0 mm 2 m/s 763 mmHg 90%
    23:00 +21°C° 0 mm 2 m/s 763 mmHg 91%

    26 Novembro, Domingo

    Tempo Temperatura Precipitação Vento Pressão Humidade
    00:00 +21°C° 0 mm 2 m/s 762 mmHg 92%
    01:00 +21°C° 0 mm 2 m/s 762 mmHg 92%
    02:00 +20°C° 0 mm 3 m/s 762 mmHg 92%
    03:00 +20°C° 0 mm 3 m/s 762 mmHg 93%
    04:00 +20°C° 0 mm 3 m/s 762 mmHg 93%
    05:00 +19°C° 0 mm 4 m/s 762 mmHg 93%
    06:00 +19°C° 0 mm 4 m/s 763 mmHg 93%
    07:00 +21°C° 0 mm 4 m/s 763 mmHg 83%
    08:00 +23°C° 0 mm 4 m/s 764 mmHg 73%
    09:00 +26°C° 0 mm 4 m/s 765 mmHg 63%
    10:00 +28°C° 0 mm 4 m/s 764 mmHg 57%
    11:00 +29°C° 0 mm 4 m/s 764 mmHg 52%
    12:00 +32°C° 0 mm 4 m/s 763 mmHg 46%
    13:00 +30°C° 0 mm 4 m/s 763 mmHg 48%
    14:00 +30°C° 0 mm 4 m/s 762 mmHg 50%
    15:00 +29°C° 0 mm 4 m/s 762 mmHg 52%
    16:00 +27°C° 0 mm 4 m/s 762 mmHg 59%
    17:00 +26°C° 0 mm 4 m/s 762 mmHg 65%
    18:00 +23°C° 0 mm 4 m/s 763 mmHg 72%
    19:00 +22°C° 0 mm 4 m/s 763 mmHg 74%
    20:00 +22°C° 0 mm 4 m/s 763 mmHg 75%
    21:00 +21°C° 0 mm 3 m/s 764 mmHg 77%
    22:00 +21°C° 0 mm 3 m/s 764 mmHg 78%
    23:00 +20°C° 0 mm 3 m/s 764 mmHg 79%

    27 Novembro, Segunda-feira

    Tempo Temperatura Precipitação Vento Pressão Humidade
    00:00 +20°C° 0 mm 3 m/s 764 mmHg 79%
    01:00 +20°C° 0 mm 4 m/s 763 mmHg 81%
    02:00 +19°C° 0 mm 4 m/s 763 mmHg 84%
    03:00 +19°C° 0 mm 4 m/s 763 mmHg 86%
    04:00 +18°C° 0 mm 4 m/s 764 mmHg 87%
    05:00 +18°C° 0 mm 4 m/s 764 mmHg 88%
    06:00 +18°C° 0 mm 4 m/s 764 mmHg 90%
    07:00 +20°C° 0 mm 4 m/s 764 mmHg 79%
    08:00 +23°C° 0 mm 4 m/s 765 mmHg 69%
    09:00 +26°C° 0 mm 4 m/s 765 mmHg 58%
    10:00 +27°C° 0 mm 4 m/s 764 mmHg 53%
    11:00 +29°C° 0 mm 4 m/s 764 mmHg 48%
    12:00 +30°C° 0 mm 4 m/s 763 mmHg 43%
    13:00 +30°C° 0 mm 4 m/s 763 mmHg 44%
    14:00 +30°C° 0 mm 4 m/s 762 mmHg 45%
    15:00 +29°C° 0 mm 4 m/s 761 mmHg 46%
    16:00 +27°C° 0 mm 4 m/s 762 mmHg 55%
    17:00 +25°C° 0 mm 3 m/s 762 mmHg 63%
    18:00 +22°C° 0 mm 3 m/s 762 mmHg 71%
    19:00 +22°C° 0 mm 3 m/s 763 mmHg 74%
    20:00 +21°C° 0 mm 2 m/s 763 mmHg 77%
    21:00 +20°C° 0 mm 2 m/s 763 mmHg 80%
    22:00 +20°C° 0 mm 2 m/s 763 mmHg 80%
    23:00 +20°C° 0 mm 3 m/s 763 mmHg 81%
    Mostrar mais